Terug naar catalogus

FENGYUN 1C DEB

ActiefPO
NORAD 30633·DEBRIS·🇨🇳 China

Gelanceerd May 10, 1999 vanaf Taiyuan Satellite Launch Center

Loading…

Volgende Passages (komende 24 uur)

TLE

VersSource: Space-Track

Epoch: Sep 14, 2026, 01:21 UTC

1 30633U 99025ANQ 26257.05687133  .00001063  00000-0  63530-3 0  9995
2 30633  98.3975 107.1165 0128437 199.2832 314.8819 14.05067429997577

Volg FENGYUN 1C DEB in realtime met AllMySat

Download on the App Store